This demonstration page uses our WeatherBlox Daily Observations layout. Learn more.

Hourly Observations for July 2, 2019

Temp ( °F °C ) Dew Point ( °F °C ) Humidity (%) Winds ( mph kmh ) Pressure ( in mb ) Visibility ( mi km ) Precip ( " mm )
12:15 am 00:15 Mostly Cloudy 72 22.2 69 20.5 90 90 N 6 9 29.88 1012 10 16.09344 0 0
12:35 am 00:35 Partly Cloudy 72 22 69 20.3 90 90 N 5 7 29.88 1012 10 16.09344 0 0
12:55 am 00:55 Partly Cloudy 71 21.5 68 20.1 92 92 Calm 29.88 1012 10 16.09344 0 0
1:15 am 01:15 Clear 71 21.4 68 20.2 93 93 WNW 3 6 29.88 1012 10 16.09344 0 0
1:35 am 01:35 Clear 71 21.5 68 20.1 92 92 NW 3 6 29.88 1012 10 16.09344 0 0
1:55 am 01:55 Clear 70 21.1 68 20.1 94 94 N 3 6 29.88 1012 10 16.09344 0 0
2:15 am 02:15 Clear 70 21 68 20.2 95 95 Calm 29.88 1012 10 16.09344 0 0
2:35 am 02:35 Clear 71 21.5 68 20.2 92 92 E 6 9 29.88 1012 10 16.09344 0 0
2:55 am 02:55 Clear 71 21.5 69 20.4 93 93 Calm 29.88 1012 10 16.09344 0 0
3:15 am 03:15 Clear 70 21 68 20.2 95 95 Calm 29.88 1012 10 16.09344 0 0
3:35 am 03:35 Clear 70 21.3 69 20.4 95 95 ESE 3 6 29.85 1011 10 16.09344 0 0
3:55 am 03:55 Clear 70 21.2 69 20.3 95 95 SE 3 6 29.85 1011 10 16.09344 0 0
4:15 am 04:15 Clear 70 21 68 20.2 95 95 ESE 5 7 29.85 1011 10 16.09344 0 0
4:35 am 04:35 Clear 71 21.4 68 20.1 92 92 SE 6 9 29.85 1011 10 16.09344 0 0
4:55 am 04:55 Partly Cloudy 69 20.8 68 20 95 95 SSE 3 6 29.85 1011 10 16.09344 0 0
5:15 am 05:15 Mostly Cloudy 70 21 68 20 94 94 SSE 5 7 29.85 1011 10 16.09344 0 0
5:35 am 05:35 Partly Cloudy 70 21 68 19.9 93 93 S 3 6 29.85 1011 10 16.09344 0 0
5:55 am 05:55 Clear 70 21 67 19.7 92 92 Calm 29.85 1011 10 16.09344 0 0
6:15 am 06:15 Sunny 69 20.7 67 19.5 93 93 S 3 6 29.85 1011 10 16.09344 0 0
6:35 am 06:35 Partly Cloudy 69 20.6 67 19.5 93 93 S 3 6 29.85 1011 10 16.09344 0 0
6:55 am 06:55 Sunny 69 20.6 67 19.5 93 93 S 5 7 29.85 1011 10 16.09344 0 0
7:15 am 07:15 Partly Cloudy 70 21.3 67 19.6 90 90 S 3 6 29.83 1010 10 16.09344 0 0
7:35 am 07:35 Partly Cloudy 71 21.4 68 20 92 92 SSE 3 6 29.83 1010 10 16.09344 0 0
7:55 am 07:55 Partly Cloudy 72 22 68 20 88 88 S 3 6 29.83 1010 10 16.09344 0 0
8:15 am 08:15 Partly Cloudy 73 22.8 68 20.1 85 85 S 5 7 29.8 1009 10 16.09344 0 0
8:35 am 08:35 Sunny 74 23.2 68 20 82 82 Calm 29.83 1010 10 16.09344 0 0
8:55 am 08:55 Sunny 74 23.1 68 20.2 84 84 Calm 29.83 1010 10 16.09344 0 0
9:15 am 09:15 Sunny 74 23.5 69 20.5 83 83 NW 6 9 29.83 1010 10 16.09344 0 0
9:35 am 09:35 Partly Cloudy 74 23.5 69 20.6 84 84 WNW 3 6 29.83 1010 10 16.09344 0 0
9:55 am 09:55 Mostly Cloudy 74 23.5 69 20.6 84 84 NW 3 6 29.83 1010 10 16.09344 0 0
10:15 am 10:15 Mostly Cloudy with Light Rain 75 24 70 21.2 84 84 Calm 29.83 1010 10 16.09344 0 0
10:35 am 10:35 Partly Cloudy 77 25 70 21.2 80 80 Calm 29.83 1010 10 16.09344 0 0
10:55 am 10:55 Sunny 78 25.5 71 21.4 78 78 S 3 6 29.83 1010 10 16.09344 0 0
11:15 am 11:15 Sunny 79 26.1 71 21.6 76 76 Calm 29.83 1010 10 16.09344 0 0
11:35 am 11:35 Sunny 81 27.2 70 21 69 69 SSW 3 6 29.8 1009 10 16.09344 0 0
11:55 am 11:55 Sunny 82 27.6 68 20.1 64 64 Calm 29.8 1009 10 16.09344 0 0
12:15 pm 12:15 Sunny 81 27.4 70 21 68 68 ESE 3 6 29.8 1009 10 16.09344 0 0
12:35 pm 12:35 Sunny 82 27.5 69 20.5 66 66 Calm 29.8 1009 10 16.09344 0 0
12:55 pm 12:55 Sunny 82 28 70 21 66 66 ESE 5 7 29.8 1009 10 16.09344 0 0
1:15 pm 13:15 Sunny 83 28.1 69 20.7 64 64 ESE 6 9 29.8 1009 10 16.09344 0 0
1:35 pm 13:35 Sunny 84 28.8 71 21.4 64 64 E 7 11 29.8 1009 10 16.09344 0 0
1:55 pm 13:55 Sunny 85 29.3 71 21.6 63 63 ESE 7 11 29.8 1009 10 16.09344 0 0
2:15 pm 14:15 Partly Cloudy 86 30 69 20.6 57 57 SSE 6 9 29.77 1008 10 16.09344 0 0
2:35 pm 14:35 Partly Cloudy 85 29.6 70 21 60 60 SE 5 7 29.8 1009 10 16.09344 0 0
2:55 pm 14:55 Partly Cloudy 87 30.4 69 20.8 56 56 S 9 15 29.74 1007 10 16.09344 0 0
3:15 pm 15:15 Mostly Cloudy 87 30.6 70 21.1 57 57 S 5 7 29.74 1007 10 16.09344 0 0
3:35 pm 15:35 Partly Cloudy 87 30.6 68 19.9 53 53 S 8 13 29.74 1007 10 16.09344 0 0
3:55 pm 15:55 Sunny 87 30.6 67 19.6 52 52 SSW 5 7 29.74 1007 10 16.09344 0 0
4:15 pm 16:15 Sunny 87 30.5 68 20.1 54 54 S 9 15 29.74 1007 10 16.09344 0 0
4:35 pm 16:35 Sunny 88 30.9 67 19.5 51 51 S 7 11 29.71 1006 10 16.09344 0 0
4:55 pm 16:55 Sunny 87 30.8 67 19.2 50 50 SSE 5 7 29.71 1006 10 16.09344 0 0
5:15 pm 17:15 Sunny 88 31.1 65 18.2 46 46 S 6 9 29.71 1006 10 16.09344 0 0
5:35 pm 17:35 Sunny with Nearby Thunderstorms 87 30.4 65 18.4 49 49 SE 6 9 29.71 1006 10 16.09344 0 0
5:55 pm 17:55 Sunny 86 29.9 64 18 49 49 S 3 6 29.71 1006 10 16.09344 0 0
6:15 pm 18:15 Sunny 85 29.6 67 19.2 54 54 SSE 3 6 29.68 1005 10 16.09344 0 0
6:35 pm 18:35 Sunny 85 29.5 68 19.8 56 56 Calm 29.68 1005 10 16.09344 0 0
6:55 pm 18:55 Sunny 85 29.5 68 19.9 56 56 SE 3 6 29.68 1005 10 16.09344 0 0
7:15 pm 19:15 Sunny 84 29 70 21.1 62 62 SE 5 7 29.68 1005 10 16.09344 0 0
7:35 pm 19:35 Sunny 85 29.7 68 20 56 56 SSE 5 7 29.68 1005 10 16.09344 0 0
7:55 pm 19:55 Sunny 85 29.4 68 19.9 57 57 Calm 29.68 1005 10 16.09344 0 0
8:15 pm 20:15 Sunny 84 29 69 20.6 61 61 SE 5 7 29.68 1005 10 16.09344 0 0
8:35 pm 20:35 Sunny 82 27.7 70 21.3 68 68 SE 5 7 29.71 1006 10 16.09344 0 0
8:55 pm 20:55 Sunny 80 26.9 69 20.7 69 69 SE 5 7 29.71 1006 10 16.09344 0 0
9:15 pm 21:15 Clear 79 26.1 68 20.1 70 70 SSE 5 7 29.71 1006 10 16.09344 0 0
9:35 pm 21:35 Clear 78 25.6 68 20.1 72 72 SE 3 6 29.71 1006 10 16.09344 0 0
9:55 pm 21:55 Clear 76 24.4 69 20.7 80 80 Calm 29.74 1007 10 16.09344 0 0
10:15 pm 22:15 Clear 75 23.7 69 20.5 82 82 Calm 29.77 1008 10 16.09344 0 0
10:35 pm 22:35 Clear 73 22.8 69 20.6 87 87 Calm 29.77 1008 10 16.09344 0 0
10:55 pm 22:55 Clear 74 23.1 69 20.5 85 85 E 6 9 29.8 1009 10 16.09344 0 0
11:15 pm 23:15 Clear 74 23.4 69 20.5 84 84 E 6 9 29.8 1009 10 16.09344 0 0
11:35 pm 23:35 Clear 73 23 69 20.5 86 86 E 7 11 29.8 1009 10 16.09344 0 0
11:55 pm 23:55 Clear 73 22.7 69 20.8 89 89 ESE 7 11 29.8 1009 10 16.09344 0 0

Powered by AerisWeather